Flag for Brazil Weather past 2 weeks in Recife, Pernambuco, Brazil

Now
84 °F

Scattered clouds.


Feels Like: 91 °F
Forecast: 78 / 84 °F
Wind: 10 mph from East

Location: Recife Aeroporto

Current Time: Dec 27, 2014 at 9:21:09 AM

Latest Report: Dec 27, 2014 at 9:00 AM


Visibility: N/A

Pressure: 29.98 "Hg

Humidity: 70%

Dew point: 73 °F

Location of RecifeLocation

Historic Weather in Recife — Graph

°F

Recife temperature yesterday

Maximum temperature yesterday: 84 °F (at 10:00 AM)
Minimum temperature yesterday: 79 °F (at 12:00 AM)
Average temperature yesterday: 81 °F

Past Weeks' High & Low Weather Summary

 TemperatureHumidityPressure
High86 °F (Dec 12, 11:00 AM)94% (Dec 14, 11:00 PM)30.04 "Hg (Dec 14, 11:00 PM)
Low75 °F (Dec 14, 5:00 AM)59% (Dec 17, 10:00 AM)29.86 "Hg (Dec 12, 3:00 PM)
Average81 °F75%29.92 "Hg
* Reported Dec 12 8:00 AM — Dec 27 8:00 AM, Recife, Weather by CustomWeather, © 2014

Note: Actual official high and low records may vary slightly from our data, if they occured in-between our weather recording intervals... More about our weather records

Advertising

Recife weather history for previous 24 hours

 ConditionsComfort  
Time TempWeatherWind HumidityBarometerVisibility
8:00 AM
Dec 27
82 °FBroken clouds.13 mph74%29.98 "HgN/A
7:00 AM79 °FPartly sunny.3 mph84%29.95 "HgN/A
6:00 AM77 °FPartly cloudy.6 mph83%29.95 "HgN/A
5:00 AM75 °FPartly cloudy.5 mph89%29.95 "HgN/A
4:00 AM75 °FPartly cloudy.5 mph89%29.92 "HgN/A
3:00 AM77 °FPartly cloudy.3 mph83%29.95 "HgN/A
2:00 AM79 °FPassing clouds.12 mph79%29.95 "HgN/A
1:00 AM79 °FPassing clouds.8 mph79%29.95 "HgN/A
12:00 AM79 °FPassing clouds.10 mph74%29.98 "HgN/A
11:00 PM
Dec 26
79 °FPartly cloudy.9 mph79%30.01 "HgN/A
10:00 PM81 °FPassing clouds.9 mph74%30.01 "HgN/A
9:00 PM81 °FPassing clouds.9 mph74%30.01 "HgN/A
8:00 PM81 °FPassing clouds.12 mph74%30.01 "HgN/A
7:00 PM79 °FPassing clouds.10 mph79%29.98 "HgN/A
6:00 PM81 °FScattered clouds.8 mph74%29.98 "HgN/A
5:00 PM81 °FBroken clouds.12 mph74%29.95 "HgN/A
4:00 PM82 °FBroken clouds.12 mph70%29.95 "HgN/A
3:00 PM82 °FBroken clouds.12 mph70%29.95 "HgN/A
2:00 PM82 °FScattered clouds.12 mph70%29.95 "HgN/A
1:00 PM84 °FScattered clouds.13 mph66%29.98 "HgN/A
12:00 PM82 °FScattered clouds.13 mph70%29.98 "HgN/A
11:00 AM84 °FScattered clouds.9 mph66%30.01 "HgN/A
10:00 AM84 °FScattered clouds.10 mph66%30.01 "HgN/A
9:00 AM82 °FBroken clouds.10 mph70%30.04 "HgN/A
Weather by CustomWeather, © 2014

See weather overviewHow to use our weather pages